Danville, VA

10:46 AM EDT on April 28, 2017 (GMT -0400)
Danville Regional

Weather History for KDAN - May, 2012

Change the Weather History Date:

Monday, May 7, 2012

  Actual Average Record
Temperature  
Mean Temperature 68 °F 64 °F  
Max Temperature 78 °F 76 °F 92 °F (1959)
Min Temperature 58 °F 52 °F 34 °F (1970)
Degree Days  
Heating Degree Days 0 3  
Month to date heating degree days 0 27  
Since 1 July heating degree days 3251 3770  
Cooling Degree Days 3 2  
Month to date cooling degree days 47 14  
Year to date cooling degree days 75 48  
Growing Degree Days 16 (Base 50)    
Moisture  
Dew Point 58 °F    
Average Humidity 77    
Maximum Humidity 100    
Minimum Humidity 54    
Precipitation  
Precipitation 0.00 in 0.11 in 1.34 in (1967)
Month to date precipitation T 0.74  
Year to date precipitation 10.42 14.74  
Snow  
Snow 0.00 in - - ()
Month to date snowfall 0.0  
Since 1 July snowfall 3.0  
Snow Depth 0.00 in    
Sea Level Pressure  
Sea Level Pressure 30.03 in    
Wind  
Wind Speed 3 mph (ESE)    
Max Wind Speed 10 mph    
Max Gust Speed 15 mph    
Visibility 10 miles    
Events      
T = Trace of Precipitation, MM = Missing Value Source: NWS Daily Summary

Daily Weather History Graph

Daily Weather History Graph

Search for Another Location

Airport or City:

Trip Planner

Search our weather history database for the weather conditions in past years. The results will help you decide how hot, cold, wet, or windy it might be!

Date:

Astronomy

May. 07, 2012 Rise Set
Actual Time 6:17 AM EDT 8:11 PM EDT
Civil Twilight 5:48 AM EDT 8:39 PM EDT
Nautical Twilight 5:14 AM EDT 9:13 PM EDT
Astronomical Twilight 4:38 AM EDT 9:50 PM EDT
Moon 10:18 PM EDT (5/7) 7:23 AM EDT (5/7)
Length of Visible Light 14h 50m
Length of Day
13h 54m
Waning Gibbous, 97% of the Moon is Illuminated
May 7
Waning Gibbous
May 12
Last Quarter
May 20
New
May 28
First Quarter
Jun 4
Full

Hourly Weather History & Observations

Time (EDT) Temp. Dew Point Humidity Pressure Visibility Wind Dir Wind Speed Gust Speed Precip Events Conditions
12:45 AM 62.6 °F 60.8 °F 94% 30.07 in 10.0 mi Calm Calm - N/A   Overcast
12:53 AM 63.0 °F 62.1 °F 97% 30.05 in 10.0 mi Calm Calm - N/A   Overcast
1:38 AM 62.6 °F 62.6 °F 100% 30.06 in 10.0 mi Calm Calm - N/A   Overcast
1:53 AM 64.0 °F 61.0 °F 90% 30.03 in 10.0 mi Variable 4.6 mph - N/A   Overcast
2:40 AM 62.6 °F 60.8 °F 94% 30.05 in 10.0 mi Calm Calm - N/A   Overcast
2:53 AM 63.0 °F 60.1 °F 90% 30.03 in 10.0 mi Calm Calm - N/A   Overcast
3:22 AM 62.6 °F 59.0 °F 88% 30.04 in 10.0 mi SE 3.5 mph - N/A   Overcast
3:53 AM 62.1 °F 60.1 °F 93% 30.02 in 10.0 mi Calm Calm - N/A   Overcast
4:02 AM 62.6 °F 60.8 °F 94% 30.05 in 10.0 mi Calm Calm - N/A   Overcast
4:13 AM 62.6 °F 60.8 °F 94% 30.05 in 10.0 mi East 3.5 mph - N/A   Overcast
4:46 AM 60.8 °F 59.0 °F 94% 30.04 in 10.0 mi East 3.5 mph - N/A   Overcast
4:53 AM 61.0 °F 59.0 °F 93% 30.02 in 10.0 mi East 3.5 mph - N/A   Overcast
5:07 AM 60.8 °F 57.2 °F 88% 30.04 in 10.0 mi Calm Calm - N/A   Overcast
5:29 AM 60.8 °F 57.2 °F 88% 30.04 in 10.0 mi Calm Calm - N/A   Mostly Cloudy
5:53 AM 60.1 °F 55.9 °F 86% 30.02 in 10.0 mi ENE 3.5 mph - N/A   Overcast
6:53 AM 57.9 °F 55.9 °F 93% 30.03 in 10.0 mi Calm Calm - N/A   Scattered Clouds
7:02 AM 59.0 °F 55.4 °F 88% 30.06 in 10.0 mi Calm Calm - N/A   Mostly Cloudy
7:53 AM 59.0 °F 55.0 °F 87% 30.06 in 10.0 mi Calm Calm - N/A   Overcast
8:53 AM 62.1 °F 55.9 °F 80% 30.06 in 10.0 mi Variable 3.5 mph - N/A   Overcast
9:19 AM 62.6 °F 55.4 °F 77% 30.09 in 10.0 mi Calm Calm - N/A   Mostly Cloudy
9:53 AM 64.9 °F 55.9 °F 73% 30.08 in 10.0 mi Calm Calm - N/A   Overcast
10:53 AM 68.0 °F 55.9 °F 65% 30.07 in 10.0 mi Calm Calm - N/A   Mostly Cloudy
11:53 AM 72.0 °F 57.0 °F 59% 30.06 in 10.0 mi Variable 3.5 mph - N/A   Scattered Clouds
12:53 PM 72.0 °F 57.0 °F 59% 30.05 in 10.0 mi Variable 3.5 mph - N/A   Mostly Cloudy
1:53 PM 73.0 °F 57.0 °F 57% 30.04 in 10.0 mi South 5.8 mph - N/A   Scattered Clouds
2:53 PM 75.0 °F 57.0 °F 53% 30.02 in 10.0 mi Calm Calm - N/A   Mostly Cloudy
3:53 PM 75.0 °F 57.9 °F 55% 29.99 in 10.0 mi Variable 3.5 mph - N/A   Mostly Cloudy
4:53 PM 73.9 °F 59.0 °F 59% 29.97 in 10.0 mi ESE 4.6 mph - N/A   Scattered Clouds
5:53 PM 75.0 °F 57.0 °F 53% 29.96 in 10.0 mi Variable 3.5 mph - N/A   Scattered Clouds
6:53 PM 72.0 °F 59.0 °F 64% 29.96 in 10.0 mi Calm Calm - N/A   Overcast
7:53 PM 70.0 °F 57.9 °F 65% 29.96 in 10.0 mi SE 4.6 mph - N/A   Partly Cloudy
8:53 PM 68.0 °F 57.9 °F 70% 29.97 in 10.0 mi Variable 4.6 mph - N/A   Partly Cloudy
9:53 PM 66.9 °F 57.9 °F 73% 29.98 in 10.0 mi Variable 3.5 mph - N/A   Mostly Cloudy
10:53 PM 66.9 °F 57.0 °F 70% 30.00 in 10.0 mi Variable 4.6 mph - N/A   Overcast
11:53 PM 66.0 °F 55.9 °F 70% 30.00 in 10.0 mi Variable 3.5 mph - N/A   Overcast